Ironwood, MI

7:12 AM CDT on August 23, 2017 (GMT -0500)
Gogebic-Iron County

Weather History for KIWD - November, 2014

Change the Weather History Date:

Saturday, November 22, 2014

  Actual Average Record
Temperature  
Mean Temperature 34 °F -  
Max Temperature 37 °F 33 °F 60 °F (2012)
Min Temperature 30 °F 22 °F -9 °F (2008)
Degree Days  
Heating Degree Days 32    
Moisture  
Dew Point 30 °F    
Average Humidity 87    
Maximum Humidity 100    
Minimum Humidity 75    
Precipitation  
Precipitation 0.00 in - - ()
Sea Level Pressure  
Sea Level Pressure 29.66 in    
Wind  
Wind Speed 13 mph (SSW)    
Max Wind Speed 20 mph    
Max Gust Speed 29 mph    
Visibility 7 miles    
Events      
Averages and records for this station are not official NWS values.
T = Trace of Precipitation, MM = Missing Value Source: NWS Daily Summary

Daily Weather History Graph

Daily Weather History Graph

Search for Another Location

Airport or City:

Trip Planner

Search our weather history database for the weather conditions in past years. The results will help you decide how hot, cold, wet, or windy it might be!

Date:

Astronomy

Nov. 22, 2014 Rise Set
Actual Time 7:12 AM CST 4:20 PM CST
Civil Twilight 6:38 AM CST 4:54 PM CST
Nautical Twilight 6:01 AM CST 5:31 PM CST
Astronomical Twilight 5:25 AM CST 6:07 PM CST
Moon 7:06 AM CST (11/22) 4:53 PM CST (11/22)
Length of Visible Light 10h 15m
Length of Day
9h 08m
New Moon, 0% of the Moon is Illuminated
Nov 22
New Moon
Nov 29
First Quarter
Dec 6
Full
Dec 14
Last Quarter
Dec 21
New

Hourly Weather History & Observations

Time (CST) Temp. Windchill Dew Point Humidity Pressure Visibility Wind Dir Wind Speed Gust Speed Precip Events Conditions
12:15 AM 30.2 °F 17.8 °F 23.0 °F 75% 29.74 in 10.0 mi SSW 19.6 mph 28.8 mph N/A   Clear
12:35 AM 30.2 °F 18.5 °F 23.0 °F 75% 29.74 in 10.0 mi SW 17.3 mph 25.3 mph N/A   Partly Cloudy
12:55 AM 30.2 °F 18.1 °F 24.8 °F 80% 29.73 in 10.0 mi SSW 18.4 mph 24.2 mph N/A   Scattered Clouds
1:15 AM 30.2 °F 18.9 °F 24.8 °F 80% 29.72 in 10.0 mi SSW 16.1 mph 25.3 mph N/A   Mostly Cloudy
1:35 AM 30.2 °F 18.5 °F 26.6 °F 86% 29.73 in 10.0 mi SW 17.3 mph 25.3 mph N/A   Mostly Cloudy
1:55 AM 30.2 °F 19.3 °F 26.6 °F 86% 29.73 in 10.0 mi SW 15.0 mph 21.9 mph N/A   Mostly Cloudy
2:15 AM 30.2 °F 19.8 °F 24.8 °F 80% 29.73 in 10.0 mi SW 13.8 mph 19.6 mph N/A   Mostly Cloudy
2:35 AM 30.2 °F 18.5 °F 26.6 °F 86% 29.73 in 10.0 mi SW 17.3 mph 25.3 mph N/A   Mostly Cloudy
2:55 AM 32.0 °F 20.5 °F 26.6 °F 80% 29.72 in 10.0 mi SW 18.4 mph 25.3 mph N/A   Overcast
3:15 AM 30.2 °F 19.8 °F 26.6 °F 86% 29.72 in 9.0 mi SW 13.8 mph 24.2 mph N/A   Mostly Cloudy
3:35 AM 30.2 °F 18.5 °F 26.6 °F 86% 29.71 in 8.0 mi SW 17.3 mph 21.9 mph N/A   Mostly Cloudy
3:55 AM 32.0 °F 21.2 °F 28.4 °F 87% 29.70 in 8.0 mi SW 16.1 mph 21.9 mph N/A   Mostly Cloudy
4:15 AM 32.0 °F 20.5 °F 28.4 °F 87% 29.69 in 8.0 mi SSW 18.4 mph 25.3 mph N/A   Mostly Cloudy
4:35 AM 32.0 °F 20.8 °F 26.6 °F 80% 29.69 in 7.0 mi SW 17.3 mph 21.9 mph N/A   Scattered Clouds
4:55 AM 32.0 °F 21.6 °F 28.4 °F 87% 29.69 in 7.0 mi SW 15.0 mph - N/A   Scattered Clouds
5:15 AM 32.0 °F 22.5 °F 28.4 °F 87% 29.68 in 7.0 mi SSW 12.7 mph 26.5 mph N/A   Scattered Clouds
5:35 AM 32.0 °F 22.1 °F 28.4 °F 87% 29.68 in 6.0 mi SW 13.8 mph 20.7 mph N/A   Scattered Clouds
5:55 AM 32.0 °F 22.5 °F 28.4 °F 87% 29.68 in 6.0 mi SW 12.7 mph - N/A   Mostly Cloudy
6:15 AM 32.0 °F 22.1 °F 30.2 °F 93% 29.68 in 6.0 mi SW 13.8 mph 19.6 mph N/A   Overcast
6:35 AM 32.0 °F 23.6 °F 28.4 °F 87% 29.68 in 6.0 mi SW 10.4 mph - N/A   Overcast
6:55 AM 33.8 °F 26.4 °F 30.2 °F 87% 29.68 in 5.0 mi SW 9.2 mph 16.1 mph N/A   Overcast
7:15 AM 33.8 °F 26.4 °F 30.2 °F 87% 29.68 in 4.0 mi SW 9.2 mph - N/A   Overcast
7:35 AM 33.8 °F 26.4 °F 30.2 °F 87% 29.70 in 4.0 mi SW 9.2 mph - N/A   Overcast
7:55 AM 33.8 °F 24.8 °F 30.2 °F 87% 29.70 in 4.0 mi SW 12.7 mph 18.4 mph N/A   Overcast
8:15 AM 33.8 °F 25.3 °F 30.2 °F 87% 29.69 in 4.0 mi SW 11.5 mph - N/A   Overcast
8:35 AM 33.8 °F 25.8 °F 30.2 °F 87% 29.69 in 4.0 mi SW 10.4 mph - N/A   Overcast
8:55 AM 33.8 °F 26.4 °F 32.0 °F 93% 29.69 in 4.0 mi SW 9.2 mph - N/A   Overcast
9:15 AM 33.8 °F 24.3 °F 30.2 °F 87% 29.69 in 4.0 mi SW 13.8 mph - N/A   Overcast
9:35 AM 33.8 °F 24.3 °F 30.2 °F 87% 29.69 in 4.0 mi SW 13.8 mph - N/A   Overcast
9:55 AM 33.8 °F 25.8 °F 30.2 °F 87% 29.68 in 5.0 mi SW 10.4 mph - N/A   Overcast
10:15 AM 33.8 °F 26.4 °F 30.2 °F 87% 29.68 in 5.0 mi SW 9.2 mph 17.3 mph N/A   Overcast
10:35 AM 35.6 °F 28.6 °F 32.0 °F 87% 29.68 in 5.0 mi SSW 9.2 mph - N/A   Overcast
10:55 AM 35.6 °F 29.2 °F 32.0 °F 87% 29.67 in 5.0 mi SSW 8.1 mph - N/A   Overcast
11:15 AM 35.6 °F 27.5 °F 32.0 °F 87% 29.66 in 6.0 mi SSW 11.5 mph - N/A   Overcast
11:35 AM 35.6 °F 28.0 °F 32.0 °F 87% 29.65 in 5.0 mi SSW 10.4 mph 18.4 mph N/A   Overcast
11:55 AM 35.6 °F 28.0 °F 32.0 °F 87% 29.65 in 6.0 mi SW 10.4 mph 16.1 mph N/A   Overcast
12:15 PM 35.6 °F 27.1 °F 32.0 °F 87% 29.64 in 7.0 mi SW 12.7 mph 17.3 mph N/A   Overcast
12:35 PM 37.4 °F 28.9 °F 32.0 °F 81% 29.64 in 7.0 mi SSW 13.8 mph - N/A   Mostly Cloudy
12:55 PM 37.4 °F 31.4 °F 32.0 °F 81% 29.64 in 7.0 mi SSW 8.1 mph - N/A   Mostly Cloudy
1:15 PM 37.4 °F 29.8 °F 33.8 °F 87% 29.64 in 7.0 mi SSW 11.5 mph - N/A   Overcast
1:35 PM 37.4 °F 30.3 °F 32.0 °F 81% 29.64 in 7.0 mi SSW 10.4 mph - N/A   Mostly Cloudy
1:55 PM 37.4 °F 30.8 °F 30.2 °F 75% 29.64 in 7.0 mi SW 9.2 mph 16.1 mph N/A   Overcast
2:15 PM 37.4 °F 30.3 °F 32.0 °F 81% 29.64 in 7.0 mi SSW 10.4 mph - N/A   Overcast
2:35 PM 35.6 °F 29.2 °F 32.0 °F 87% 29.64 in 7.0 mi South 8.1 mph - N/A   Overcast
2:55 PM 35.6 °F 27.5 °F 32.0 °F 87% 29.65 in 7.0 mi SSW 11.5 mph 16.1 mph N/A   Overcast
3:15 PM 35.6 °F 28.6 °F 32.0 °F 87% 29.65 in 8.0 mi SSW 9.2 mph - N/A   Overcast
3:55 PM 35.6 °F 29.9 °F 32.0 °F 87% 29.65 in 8.0 mi SSW 6.9 mph - N/A   Overcast
4:15 PM 35.6 °F 29.2 °F 32.0 °F 87% 29.64 in 7.0 mi South 8.1 mph - N/A   Overcast
4:35 PM 35.6 °F 29.2 °F 32.0 °F 87% 29.65 in 7.0 mi SSW 8.1 mph - N/A   Overcast
4:55 PM 35.6 °F 30.7 °F 32.0 °F 87% 29.65 in 8.0 mi South 5.8 mph - N/A   Overcast
5:15 PM 33.8 °F 28.6 °F 30.2 °F 87% 29.64 in 8.0 mi South 5.8 mph - N/A   Overcast
5:35 PM 33.8 °F 29.6 °F 32.0 °F 93% 29.64 in 8.0 mi South 4.6 mph - N/A   Overcast
5:55 PM 33.8 °F 25.8 °F 30.2 °F 87% 29.65 in 7.0 mi South 10.4 mph - N/A   Overcast
6:15 PM 33.8 °F 27.0 °F 32.0 °F 93% 29.64 in 7.0 mi SSE 8.1 mph - N/A   Overcast
6:35 PM 33.8 °F 29.6 °F 32.0 °F 93% 29.63 in 7.0 mi South 4.6 mph - N/A   Overcast
6:55 PM 33.8 °F 27.7 °F 30.2 °F 87% 29.62 in 7.0 mi SSE 6.9 mph - N/A   Overcast
7:15 PM 33.8 °F - 30.2 °F 87% 29.62 in 7.0 mi Calm Calm - N/A   Overcast
7:35 PM 33.8 °F 28.6 °F 30.2 °F 87% 29.60 in 8.0 mi SSE 5.8 mph - N/A   Overcast
7:55 PM 33.8 °F 27.7 °F 32.0 °F 93% 29.62 in 8.0 mi South 6.9 mph - N/A   Overcast
8:15 PM 33.8 °F 26.4 °F 32.0 °F 93% 29.63 in 9.0 mi South 9.2 mph - N/A   Overcast
8:35 PM 33.8 °F 27.7 °F 33.8 °F 100% 29.62 in 9.0 mi South 6.9 mph - N/A   Overcast
8:55 PM 33.8 °F 27.0 °F 32.0 °F 93% 29.63 in 8.0 mi South 8.1 mph - N/A   Overcast
9:15 PM 33.8 °F 27.7 °F 32.0 °F 93% 29.62 in 8.0 mi SSE 6.9 mph - N/A   Overcast
9:35 PM 33.8 °F 27.7 °F 33.8 °F 100% 29.62 in 9.0 mi South 6.9 mph - N/A   Overcast
9:55 PM 33.8 °F 28.6 °F 32.0 °F 93% 29.60 in 9.0 mi SSE 5.8 mph - N/A   Overcast
10:15 PM 33.8 °F 27.7 °F 33.8 °F 100% 29.60 in 9.0 mi South 6.9 mph - N/A   Overcast
10:35 PM 35.6 °F 29.9 °F 33.8 °F 93% 29.60 in 8.0 mi South 6.9 mph - N/A   Overcast
10:55 PM 35.6 °F 27.5 °F 33.8 °F 93% 29.58 in 8.0 mi SE 11.5 mph - N/A   Overcast
11:15 PM 35.6 °F 25.9 °F 33.8 °F 93% 29.58 in 9.0 mi South 16.1 mph 21.9 mph N/A   Overcast
11:35 PM 35.6 °F 29.2 °F 33.8 °F 93% 29.57 in 9.0 mi South 8.1 mph - N/A   Overcast
11:55 PM 35.6 °F 29.2 °F 33.8 °F 93% 29.57 in 10.0 mi South 8.1 mph - N/A   Overcast